Regional Weather Roundup
Issued by NWS Lake Charles, LA

Home | Current Version | Previous Version | Text Only | Print | Product List | Glossary On
Versions: 1 2 3 4 5 6 7 8 9 10 11 12 13 14 15 16 17 18 19 20 21 22 23 24 25 26 27 28 29 30 31 32 33 34 35 36 37 38 39 40 41 42 43 44 45 46 47 48 49 50
514
ASUS44 KLCH 182110
RWRLCH
REGIONAL WEATHER ROUNDUP
NATIONAL WEATHER SERVICE LAKE CHARLES LA
300 PM CST WED JAN 18 2017

Note: "fair" indicates few or no clouds below 12,000 feet with no
significant weather and/or obstructions to visibility.


ACROSS SOUTHEAST TEXAS

CITY           SKY/WX    TMP DP  RH WIND       PRES   REMARKS
BEAUMONT       CLOUDY    76  68  76 S16G25    29.96R
BEAUMONT CITY  CLOUDY    76  67  73 S14G20    29.97R
ORANGE         CLOUDY    74  74 100 S13G22    29.98F
JASPER         HVY RAIN  70  69  98 CALM      29.97F
$$

ACROSS CENTRAL LOUISIANA

CITY           SKY/WX    TMP DP  RH WIND       PRES   REMARKS
LEESVILLE      CLOUDY    72  72 100 SE7       29.95F
FULLERTON      CLOUDY    71  69  93 CALM      29.94F
ALEXANDRIA INT LGT RAIN  66  66 100 NE7       29.98F FOG
ESLER FIELD    HVY RAIN  64  64 100 N5        29.99F VSB 1/2
DERIDDER       MOCLDY   N/A N/A N/A S13       29.98F
OAKDALE        CLOUDY    75  70  84 S10       29.98S
OPELOUSAS      CLOUDY    75  68  79 S10G17    29.99F
$$

ACROSS SOUTHWEST AND SOUTH CENTRAL LOUISIANA

CITY           SKY/WX    TMP DP  RH WIND       PRES   REMARKS
SULPHUR        CLOUDY    75  71  85 S14       29.99S
LAKE CHARLES   PTSUNNY   75  69  81 S14G21    29.98S
CHENNAULT INT  PTSUNNY   75  68  78 E17       29.98F
CAMERON PHI    FOG       68  68 100 SE8       29.98S VSB 1/4
DEQUINCY       CLOUDY    74  68  81 S8G17     29.97F
JENNINGS       NOT AVBL
LAFAYETTE      CLOUDY    77  69  76 S14       30.00F
NEW IBERIA     LGT RAIN  76  68  76 S17G24    30.01F
ABBEVILLE      CLOUDY    73  72  94 SE8       30.01F
PATTERSON      PTSUNNY   79  69  71 S15G23    30.03F
SALT POINT     NOT AVBL
$$

SELECTED SITES ACROSS THE REGION

CITY           SKY/WX    TMP DP  RH WIND       PRES   REMARKS
HOUSTON BUSH   LGT RAIN  63  60  90 NW10      29.97R FOG
HOUSTON HOBBY  CLOUDY    66  65  96 W3        29.96R THUNDER
GALVESTON      CLOUDY    72  69  90 S15       29.96F FOG
COLLEGE STAT   CLOUDY    54  52  94 NW12      29.99F FOG
CONROE         CLOUDY    58  56  93 N6        29.98S
HUNTSVILLE     CLOUDY    58  55  90 E3        29.97F
LUFKIN         LGT RAIN  60  59  96 E5        29.97R VSB 1
SHREVEPORT     HVY RAIN  55  54  96 E7        30.02F FOG
MONROE         LGT RAIN  57  55  93 NE6       30.03F FOG
NATCHEZ MS     CLOUDY    73  63  68 S7        30.01S
BATON ROUGE    PTSUNNY   80  64  58 S13G24    30.00F
N.O. INTL ARPT CLOUDY    76  67  73 S14       30.04F
SLIDELL        CLOUDY    76  67  73 SE9       30.04F
$$

MARINE REPORTS

STATION/POSITION TIME  SKY/WX   TEMP    WIND        PRES    VSBY
                                AIR SEA DIR/SP/G
                 (UTC)          (F)     (DEG/KT/KT) (MB)    (MI)
BUOY 30 S HIGH I 2050            69 66  160/ 10/ 10 1014.2F
WVE H/P(F/S)=  3/ 7

SEA RIM ST PARK  2100            67     140/  7/  9 1015.4F
PORT ARTHUR      2048               66  170/ 10/ 14 1014.7F
SABINE PASS N    2048            67 67  140/ 11/ 14 1016.0F
TEXAS POINT      NOT AVBL
CALCASIEU PASS   2048            67 65  150/  7/ 11   N/A
LK CHARLES BEACH 2048            76 60              1015.5F
MARSH ISLAND     2000            65                   N/A
FRESH WATER LOCK 2048            68 71  110/  9/ 15 1016.8F
AMERADA PASS     2048            73 53  150/  6/  9 1017.0F
$$




USA.gov is the U.S. government's official web portal to all federal, state and local government web resources and services.